Location: Linz
(48.3300°N, 14.3000°E)
Time: 12:52:42
(UTC+01:00)

Vanguard 1 Rocket - Visible Passes

Search period start: 24 February 2018 00:00
Search period end: 06 March 2018 00:00
Orbit: 655 x 4222 km, 34.3° (Epoch: 23 February)

Date Brightness Start Highest point End Pass type
(mag) Time Alt. Az. Time Alt. Az. Time Alt. Az.
24 Feb 10.5 02:40:46 50° S 02:40:46 50° S 02:59:32 10° SE visible
24 Feb 10.9 04:58:04 23° WSW 05:06:48 28° SW 05:21:44 10° S visible
24 Feb 10.6 20:12:46 10° S 20:25:43 30° SE 20:25:43 30° SE visible
24 Feb 10.7 22:35:08 10° SW 23:16:24 13° E 23:18:14 10° E visible
25 Feb 10.8 01:33:41 43° SE 01:33:41 43° SE 01:47:33 10° ESE visible
25 Feb 10.7 03:51:00 37° SW 03:54:13 38° SW 04:12:23 10° SSE visible
25 Feb 11.3 06:11:05 10° W 06:19:56 13° WSW 06:27:45 10° SW visible
25 Feb 10.8 19:05:06 10° SSE 19:14:46 19° SE 19:19:05 18° ESE visible
25 Feb 10.4 21:24:24 10° SW 22:09:24 - E 21:36:25 41° S visible
25 Feb 11.1 23:49:24 10° WSW 00:26:42 27° ESE 00:34:35 10° ESE visible
26 Feb 10.6 02:44:01 45° S 02:44:01 45° S 03:01:40 10° SE visible
26 Feb 11.0 05:01:19 21° WSW 05:08:23 24° SW 05:22:37 10° S visible
26 Feb 10.4 20:14:38 10° SSW 20:27:59 34° SE 20:29:44 34° SE visible
26 Feb 10.6 22:37:42 10° WSW 23:19:48 12° ESE 23:20:41 10° E visible
27 Feb 10.9 01:37:07 39° SSE 01:37:07 39° SSE 01:49:49 10° SE visible
27 Feb 10.8 03:54:26 33° SW 03:55:57 34° SW 04:13:55 10° SSE visible
27 Feb 10.6 19:06:12 10° S 19:16:28 23° SE 19:22:59 19° ESE visible
27 Feb 10.3 21:26:50 10° SW 21:40:19 46° S 21:40:19 46° S visible
27 Feb 11.0 23:52:07 10° WSW 00:30:18 24° ESE 00:36:55 10° ESE visible
28 Feb 10.8 02:47:38 40° S 02:47:38 40° S 03:03:33 10° SSE visible
28 Feb 11.2 05:04:57 18° WSW 05:09:53 19° SW 05:22:42 10° SSW visible
28 Feb 10.8 18:01:05 10° SE 18:05:48 12° ESE 18:11:19 10° ESE visible
28 Feb 10.3 20:16:49 10° SSW 20:29:57 38° SE 20:33:30 36° SE visible
28 Feb 10.5 22:40:25 10° WSW 23:23:34 - ESE 22:50:49 43° SW visible
01 Mar 11.0 01:07:24 10° W 01:40:54 33° SSE 01:51:54 10° SE visible
01 Mar 10.9 03:58:14 29° SW 03:58:14 29° SW 04:15:01 10° S visible
01 Mar 10.4 19:07:52 10° S 19:18:20 27° SE 19:26:38 20° ESE visible
01 Mar 10.2 21:29:27 10° SW 21:43:56 50° SSE 21:43:56 50° SSE visible
01 Mar 10.9 23:54:56 10° WSW 00:34:13 20° SE 00:39:07 10° ESE visible
02 Mar 10.9 02:51:34 34° S 02:51:34 34° S 03:05:07 10° SSE visible
02 Mar 11.3 05:08:55 14° WSW 05:11:21 14° WSW 05:21:18 10° SSW visible
02 Mar 10.6 18:00:52 10° SSE 18:07:33 16° SE 18:16:19 10° E visible
02 Mar 10.2 20:19:14 10° SW 20:32:03 42° SSE 20:36:59 37° SE visible
02 Mar 10.4 22:43:13 10° WSW 23:27:37 - ESE 22:54:17 45° SW visible
03 Mar 11.1 01:10:17 10° W 01:44:58 28° SSE 01:53:45 10° SE visible
03 Mar 11.1 04:02:19 23° SW 04:02:19 23° SW 04:15:30 10° S visible
03 Mar 10.3 19:09:55 10° SSW 19:20:20 31° SE 19:29:58 21° ESE visible
03 Mar 10.1 21:32:12 10° WSW 21:47:01 52° SSE 21:47:15 52° SSE visible
03 Mar 10.8 23:57:50 10° W 00:38:24 15° SE 00:41:08 10° SE visible
04 Mar 11.1 02:55:45 27° S 02:55:45 27° S 03:06:18 10° SSE visible
04 Mar 10.4 18:01:58 10° S 18:09:27 19° SE 18:20:05 10° E visible
04 Mar 10.1 20:21:51 10° SW 20:34:19 44° SSE 20:40:10 38° ESE visible
04 Mar 10.3 22:46:07 10° WSW 23:31:51 - ESE 22:57:27 46° SW visible
05 Mar 11.3 01:13:18 10° W 01:49:12 21° SSE 01:55:19 10° SSE visible
05 Mar 11.3 04:06:34 18° SW 04:06:34 18° SW 04:15:05 10° SSW visible
05 Mar 10.1 19:12:15 10° SSW 19:22:29 34° SE 19:33:00 21° ESE visible
05 Mar 10.1 21:35:03 10° WSW 21:49:26 52° S 21:50:18 52° SSE visible
